Flag for Germany Weather past 2 weeks in Rüsselsheim, Hesse, Germany

Now
66 °F

Passing clouds.


Feels Like: 66 °F
Forecast: 59 / 84 °F
Wind: 10 mph from East

Location: Wiesbaden Airport

Current Time: Aug 1, 2015 at 10:41:13 AM

Latest Report: Aug 1, 2015 at 9:58 AM


Visibility: N/A

Pressure: 29.96 "Hg

Humidity: 47%

Dew point: 45 °F

Location of RüsselsheimLocation

Historic Weather in Rüsselsheim — Graph

°F

Rüsselsheim temperature yesterday

Maximum temperature yesterday: 73 °F (at 5:58 PM)
Minimum temperature yesterday: 51 °F (at 5:58 AM)
Average temperature yesterday: 63 °F

Past Weeks' High & Low Weather Summary

 TemperatureHumidityPressure
High95 °F (Jul 17, 4:58 PM)100% (Jul 18, 2:58 AM)30.13 "Hg (Jul 18, 2:58 AM)
Low49 °F (Jul 26, 5:58 AM)26% (Jul 17, 2:58 PM)29.62 "Hg (Jul 24, 10:58 PM)
Average70 °F62%29.89 "Hg
* Reported Jul 17 8:58 AM — Aug 1 8:58 AM, Rüsselsheim, Weather by CustomWeather, © 2015

Note: Actual official high and low records may vary slightly from our data, if they occured in-between our weather recording intervals... More about our weather records

Advertising

Rüsselsheim weather history for previous 24 hours

 ConditionsComfort  
Time TempWeatherWind HumidityBarometerVisibility
8:58 AM
Sat, Aug 1
64 °FPartly sunny.9 mph49%29.96 "HgN/A
7:58 AM63 °FScattered clouds.1 mph50%29.94 "HgN/A
6:58 AM63 °FPartly sunny.9 mph49%29.93 "HgN/A
5:58 AM63 °FPassing clouds.3 mph49%29.94 "HgN/A
4:58 AM63 °FOvercast.5 mph49%29.93 "HgN/A
3:58 AM63 °FOvercast.8 mph49%29.94 "HgN/A
2:58 AM63 °FPassing clouds.5 mph47%29.95 "HgN/A
1:58 AM63 °FPassing clouds.6 mph47%29.96 "HgN/A
12:58 AM64 °FClear.12 mph43%29.98 "HgN/A
11:58 PM
Fri, Jul 31
64 °FClear.7 mph46%29.98 "HgN/A
10:58 PM64 °FClear.3 mph46%29.99 "HgN/A
9:58 PM64 °FSunny.2 mph43%29.99 "HgN/A
8:58 PM68 °FSunny.5 mph38%29.99 "HgN/A
7:58 PM72 °FSunny.7 mph33%29.99 "HgN/A
6:58 PM72 °FSunny.8 mph33%30.00 "HgN/A
5:58 PM73 °FSunny.13 mph31%30.02 "HgN/A
4:58 PM72 °FSunny.5 mph33%30.03 "HgN/A
3:58 PM72 °FPassing clouds.10 mph34%30.04 "HgN/A
2:58 PM72 °FPassing clouds.6 mph38%30.05 "HgN/A
1:58 PM70 °FSunny.3 mph40%30.08 "HgN/A
12:58 PM67 °FPartly sunny.6 mph47%30.11 "HgN/A
11:58 AM66 °FPartly sunny.5 mph53%30.12 "HgN/A
10:58 AM63 °FSunny.2 mph59%30.12 "HgN/A
Weather by CustomWeather, © 2015

See weather overviewHow to use our weather pages